GEFSSE_con_probscp_342.txt.gz
Probability
0 1 3 3 2 1 3 5 7 10 12 11 10 8 7 6 4 4 6 6 6 3 1 0 0 0 1 2 2 3 4 4 3 3 4 4 4 4 5 6 6 5 6
0 1 2 2 1 2 3 4 6 8 9 9 9 8 7 5 4 4 5 6 5 3 1 0 0 0 0 1 2 3 4 4 3 3 3 3 4 5 6 6 6 6 6
0 0 0 0 0 2 4 4 3 4 5 6 6 6 6 5 3 3 4 4 3 1 0 0 0 0 0 0 1 3 4 4 3 2 2 2 3 4 6 7 7 7 7
0 0 0 0 0 2 4 3 2 2 3 3 3 4 4 3 2 3 3 3 2 1 0 0 0 0 0 1 2 3 3 2 2 1 1 1 1 3 6 7 7 7 7
0 0 0 0 1 2 3 2 1 2 2 2 3 4 3 3 1 2 3 3 2 1 0 0 0 0 0 0 2 4 4 3 1 1 0 0 0 2 5 6 7 7 7
0 0 1 2 3 4 4 3 2 2 2 3 4 4 4 3 1 1 2 2 1 0 0 0 0 0 0 0 2 4 6 5 3 1 0 0 1 2 4 5 6 6 6
0 0 1 3 5 7 5 3 2 1 1 3 4 3 3 3 1 1 1 1 1 0 0 0 0 0 0 1 1 3 5 6 4 1 0 0 1 3 5 6 6 6 6
0 0 1 2 5 7 6 4 2 1 1 2 3 3 4 3 2 2 2 2 1 1 0 0 0 0 0 1 2 4 6 6 4 1 0 0 1 3 5 6 7 6 5
0 0 1 2 4 5 5 5 4 2 1 2 3 5 6 4 3 3 3 2 2 2 1 0 0 0 0 1 3 7 8 6 2 0 0 0 2 3 5 7 8 7 6
0 0 1 2 2 2 3 5 5 2 2 4 6 7 8 6 4 3 2 3 3 3 1 0 1 1 2 3 5 7 8 6 2 0 1 2 4 5 5 6 7 8 7
0 0 1 1 1 0 1 3 3 1 2 4 6 6 6 4 3 2 2 3 3 3 2 2 3 4 5 5 4 4 5 5 3 1 2 4 5 5 5 4 5 6 7
0 0 0 0 0 0 0 1 1 0 0 2 3 4 2 1 1 1 1 3 3 3 3 4 5 5 5 3 2 1 2 3 2 1 2 5 6 6 5 5 5 4 4
1 0 0 0 0 0 0 0 0 0 0 0 1 1 0 0 0 0 1 1 2 3 3 4 4 4 3 2 1 1 0 1 1 0 2 5 7 7 7 6 6 4 2
2 1 1 0 0 0 0 0 0 0 1 1 0 0 0 0 0 0 1 1 1 3 3 3 3 3 2 2 2 1 0 0 1 1 2 5 7 8 7 6 5 4 2
4 3 2 1 0 0 0 1 1 1 2 2 1 1 2 1 1 1 2 2 3 3 3 2 2 2 1 1 1 1 0 1 2 2 2 4 7 7 5 3 3 4 4
3 3 2 1 0 0 1 2 2 2 2 2 3 3 3 3 3 3 3 3 3 2 1 1 1 1 0 0 0 0 0 1 2 3 2 3 5 7 5 4 3 4 5
4 3 3 1 1 0 1 1 1 1 1 1 3 4 4 5 4 3 3 3 2 1 0 0 0 0 0 0 0 0 0 0 2 3 2 1 3 6 9 9 8 8 8
6 5 3 2 1 0 0 0 0 0 0 0 1 3 4 6 6 4 2 1 1 0 0 0 0 0 0 0 0 0 0 1 2 3 2 1 2 6 9 12 14 14 14
6 6 4 2 1 1 1 0 0 0 0 0 1 2 4 5 6 4 2 1 0 0 0 0 0 0 0 0 0 0 0 1 2 3 2 2 3 5 7 10 14 16 17
6 5 4 3 3 2 2 1 0 0 0 0 0 1 3 4 5 5 4 3 1 1 0 0 0 0 0 0 0 1 0 1 2 3 3 3 4 4 4 5 8 11 12
7 6 6 5 4 3 3 2 1 0 0 0 0 1 2 3 4 5 6 4 3 2 1 0 0 0 0 0 0 1 1 1 3 3 3 3 3 5 4 4 5 6 6
9 8 7 6 5 3 3 3 1 0 0 0 0 0 1 3 3 4 5 4 3 2 1 0 0 0 0 1 1 1 2 3 3 3 3 2 2 5 6 6 5 4 4
10 10 10 9 7 4 3 3 2 1 1 0 0 0 1 3 4 4 4 3 2 1 1 0 0 0 1 2 2 3 3 3 3 3 2 1 1 3 7 8 7 5 5
12 12 12 11 8 6 4 3 3 3 2 1 0 1 2 4 5 4 3 3 2 1 0 0 1 1 2 3 3 3 3 3 3 2 1 0 0 2 5 7 7 5 5
15 14 13 12 9 6 4 3 3 3 3 2 1 1 3 4 5 4 3 3 3 2 2 2 3 3 3 3 3 2 2 1 1 1 1 0 0 0 2 3 4 4 5
17 15 13 12 9 6 4 3 3 3 3 2 1 2 3 4 4 4 3 3 3 3 4 5 4 4 3 3 2 1 1 0 0 1 0 0 0 0 0 1 2 3 4

GEFSSE_con_probscp_348.txt.gz
Probability
0 0 0 0 0 0 1 2 2 1 0 0 0 0 0 0 0 0 0 0 0 0 0 0 0 0 0 0 0 2 5 6 4 3 4 6 6 6 6 5 4 5 7
0 0 0 0 0 0 2 3 2 0 1 1 0 0 0 0 0 0 0 0 0 0 0 0 0 0 0 0 0 2 5 7 5 4 4 5 5 5 6 7 6 7 8
0 0 1 1 1 1 3 4 2 2 2 2 0 0 0 0 0 0 0 0 0 0 0 0 0 0 1 0 0 1 5 7 6 4 4 4 4 5 7 9 9 10 10
0 0 1 2 2 2 3 4 3 3 3 1 0 0 0 0 0 0 0 0 0 0 0 0 0 0 0 0 0 0 3 6 6 4 2 2 3 4 6 9 11 11 11
0 0 1 2 3 3 3 3 2 1 1 0 0 0 0 0 0 0 0 0 0 0 0 0 0 0 0 0 0 0 1 4 4 2 1 1 2 4 5 7 9 10 10
0 0 1 3 4 4 3 2 1 0 0 0 0 0 0 0 0 0 0 0 0 0 0 0 0 0 0 0 0 0 1 2 2 1 0 0 1 3 4 6 7 7 8
0 0 1 4 6 5 3 1 1 0 0 0 0 0 0 0 1 1 0 0 0 0 0 0 0 0 0 0 0 0 0 0 0 0 0 0 1 2 4 5 6 6 5
0 0 2 5 7 5 2 1 1 1 1 1 1 0 0 1 2 2 1 0 0 0 0 0 0 0 0 0 1 2 1 0 0 0 0 0 0 1 2 4 5 5 5
0 0 1 4 5 4 2 1 1 1 2 2 2 1 1 2 3 2 1 0 0 0 0 0 0 0 0 1 2 3 3 2 1 0 0 0 0 0 1 2 4 6 6
0 0 1 2 3 2 2 2 2 2 2 3 2 2 1 1 2 2 1 0 0 0 0 0 0 0 1 2 3 4 5 5 3 1 0 0 0 0 0 1 3 4 6
0 0 0 1 1 0 1 1 1 1 1 2 2 2 1 0 1 1 0 0 0 1 0 0 0 1 2 3 4 5 6 6 5 3 1 0 0 0 0 1 2 4 4
0 0 0 0 0 0 0 0 0 0 1 2 3 2 0 0 0 0 0 0 0 0 0 0 0 2 3 4 4 5 6 6 5 3 1 0 0 0 0 1 3 4 3
0 0 0 0 0 0 0 0 0 0 1 2 3 2 0 0 0 0 0 0 0 0 0 0 0 1 3 3 3 4 4 4 4 3 1 0 0 0 0 0 1 2 2
0 0 0 0 0 0 0 0 0 0 0 1 2 1 0 0 0 0 1 1 1 1 1 0 0 1 2 3 3 3 2 3 3 2 1 0 1 1 1 1 0 0 1
0 0 0 0 0 0 0 0 0 0 0 0 0 0 0 0 0 1 2 2 2 2 1 0 0 1 1 2 2 2 1 2 3 2 1 1 2 4 4 3 2 1 1
1 0 0 0 0 0 0 0 0 0 0 0 0 0 1 1 2 2 3 3 2 1 1 0 0 0 0 0 1 1 0 1 2 2 1 1 3 5 6 5 5 4 2
2 1 0 0 0 0 0 0 0 0 0 0 0 0 1 3 4 3 2 1 1 0 0 0 0 0 0 0 0 0 0 0 1 1 1 1 2 4 5 7 7 6 4
3 2 0 0 0 0 0 0 0 0 0 0 0 0 1 3 3 2 1 0 0 0 0 0 0 0 0 0 0 0 0 0 0 1 2 3 3 3 4 6 8 7 6
3 2 1 0 0 0 0 0 0 0 0 0 0 0 1 2 1 0 0 0 0 0 0 0 0 0 0 0 0 0 0 0 0 1 3 4 3 3 3 5 6 5 5
3 2 1 0 0 0 0 0 0 0 0 0 0 0 0 0 0 1 1 0 0 0 0 0 0 0 0 0 0 0 0 1 1 2 3 3 3 3 3 3 3 2 3
3 2 1 0 0 0 0 0 0 0 0 0 0 0 0 0 1 2 2 1 1 0 0 0 0 0 0 0 0 0 1 2 2 2 2 2 2 2 1 1 1 2 3
3 2 1 0 0 0 0 0 1 1 0 0 0 0 0 0 1 2 3 3 2 1 0 0 0 0 0 0 1 1 2 3 3 1 1 1 1 1 0 0 0 1 2
1 2 2 1 0 0 1 1 2 2 1 0 0 0 0 1 1 3 3 3 3 1 0 0 0 0 0 1 2 3 3 3 2 1 0 0 0 0 0 0 0 0 1
0 1 2 1 1 1 2 3 3 3 2 1 0 0 0 1 2 3 3 3 3 2 0 0 0 1 2 3 3 3 3 2 2 1 0 0 0 0 0 0 0 0 0
0 1 2 3 2 3 3 3 3 3 3 2 1 1 1 2 3 3 3 3 3 1 0 0 1 2 2 3 3 3 2 1 1 0 0 0 0 0 0 0 0 0 0
0 1 2 3 3 4 4 4 3 3 3 3 2 2 2 2 3 3 3 3 2 1 0 1 3 3 2 2 3 3 2 1 0 0 0 0 0 0 0 0 0 0 0

GEFSSE_con_probscp_354.txt.gz
Probability
0 0 1 0 0 0 1 2 4 2 1 0 0 0 0 0 0 0 0 0 0 0 0 0 0 0 1 2 3 3 3 4 5 6 6 6 5 4 5 5 6 6 7
0 0 1 0 0 1 1 1 3 2 1 0 0 0 0 0 0 0 0 0 0 0 0 0 0 0 0 2 3 3 3 4 5 6 6 5 4 4 5 6 5 5 7
0 0 0 0 1 3 3 2 2 2 1 1 1 0 0 0 0 0 0 0 0 0 1 1 0 0 0 2 2 2 3 5 6 6 5 5 5 4 4 6 7 6 7
0 0 0 1 3 5 4 3 2 2 2 2 2 1 0 0 0 0 0 0 0 0 1 1 0 0 1 2 2 1 2 4 6 6 4 4 5 5 5 6 8 8 7
0 0 0 2 4 5 4 3 3 3 3 3 3 1 0 0 0 0 0 0 0 0 1 1 0 0 1 1 1 0 2 4 6 5 4 4 5 5 5 6 8 8 7
0 0 1 2 4 4 3 2 2 2 2 3 3 2 1 1 0 0 0 0 0 0 0 0 0 0 1 1 0 0 2 4 4 4 5 4 4 5 5 5 7 8 8
0 0 1 2 2 2 1 1 0 1 1 1 3 3 3 2 1 0 0 0 0 0 0 0 0 0 0 0 0 0 1 1 1 2 3 3 4 4 4 5 6 8 9
0 0 1 1 1 0 0 0 0 0 0 1 2 3 3 3 2 1 1 0 0 0 1 2 1 1 0 0 0 0 0 0 0 1 1 1 2 3 4 4 6 7 7
0 0 0 0 0 0 0 1 1 0 0 1 3 4 4 4 3 2 1 1 0 0 2 2 2 2 1 0 0 0 0 0 0 0 0 0 1 3 3 3 4 5 6
0 0 0 0 0 0 0 1 1 1 1 3 6 7 6 4 3 2 1 1 0 0 1 2 1 2 2 1 0 0 1 1 1 0 0 0 1 2 2 1 1 2 3
0 0 0 0 0 0 0 1 1 1 1 4 7 7 6 3 2 2 2 1 0 0 0 0 0 1 2 1 1 1 2 2 1 1 0 0 0 1 1 0 0 1 2
0 0 0 0 0 0 0 0 0 0 2 4 5 5 4 4 4 4 3 3 1 1 1 1 1 2 3 3 2 3 3 3 3 2 2 2 1 0 0 0 0 0 1
0 0 0 0 0 0 0 0 0 1 2 3 2 2 3 5 6 6 6 5 4 3 3 3 4 4 3 3 3 3 4 3 3 3 3 3 2 1 1 0 0 1 1
1 1 0 0 0 0 0 0 0 1 2 2 2 2 4 6 7 7 7 6 5 5 6 6 6 4 3 3 3 3 3 3 3 3 3 3 3 2 2 1 1 2 2
3 2 1 1 1 1 1 1 0 0 1 2 3 4 5 5 6 6 7 6 5 5 6 7 6 3 3 3 3 3 3 3 3 3 3 3 3 3 3 3 4 4 5
4 3 3 3 3 3 3 2 1 0 1 2 4 6 5 4 5 6 6 5 4 3 4 5 4 3 3 3 3 3 3 3 3 3 4 4 4 4 5 6 6 6 7
4 3 4 5 6 6 5 3 1 0 1 3 5 6 5 4 6 7 6 4 3 2 3 4 4 3 3 3 3 3 3 3 3 4 5 6 6 6 7 7 7 6 5
3 3 4 5 7 7 6 4 2 0 1 3 4 5 4 4 5 6 5 5 5 5 4 4 3 3 3 3 3 4 3 3 4 5 6 6 6 7 7 8 7 5 4
2 3 5 6 7 8 9 8 4 1 1 2 2 2 2 2 3 4 4 5 5 6 5 4 3 3 3 3 3 3 3 3 5 6 6 6 6 6 7 8 9 8 6
1 3 6 7 8 9 11 10 6 2 2 2 2 2 3 3 3 4 4 4 4 4 5 4 3 2 3 2 2 1 1 2 4 5 6 6 5 5 6 8 8 8 8
1 3 6 7 9 11 12 11 8 5 4 4 4 5 5 5 5 5 5 4 3 4 4 4 2 1 1 1 1 0 0 1 3 4 4 5 4 4 5 6 6 6 7
1 4 6 8 10 11 12 11 10 9 7 6 6 8 8 7 7 7 5 4 4 4 4 3 2 1 0 1 1 0 0 2 4 4 4 5 5 4 4 5 5 5 6
3 4 7 10 11 12 13 12 13 13 11 9 9 9 9 9 8 7 6 5 5 4 4 4 4 2 1 1 2 1 1 3 5 6 6 6 6 5 4 4 4 5 5
4 4 7 11 13 14 14 14 15 17 15 12 11 10 8 8 6 5 5 6 6 7 6 6 6 6 4 3 3 3 4 6 7 8 8 7 6 5 5 4 4 5 4
4 5 7 11 14 16 16 17 18 17 15 13 11 9 7 5 4 4 5 6 8 9 9 9 9 9 8 6 6 7 9 10 10 9 8 7 6 6 5 5 5 6 5
4 6 9 11 13 15 17 19 19 17 16 13 11 9 7 4 3 3 5 8 10 10 11 11 10 10 9 8 8 9 12 13 11 9 9 8 7 6 5 5 6 7 7

GEFSSE_con_probscp_360.txt.gz
Probability
4 4 6 7 6 6 8 9 9 8 8 8 6 5 5 5 4 3 2 1 0 0 0 0 0 0 1 3 4 3 2 1 0 1 2 3 4 5 6 6 4 3 3
4 4 6 7 7 7 8 9 9 9 8 7 6 5 5 5 4 3 2 1 0 0 0 0 0 0 1 3 4 3 2 1 1 1 3 3 3 4 5 5 4 3 3
3 3 4 7 8 8 9 9 9 8 8 6 5 5 5 4 3 2 1 0 0 0 0 0 0 0 1 3 3 2 1 1 2 2 3 3 3 4 5 6 5 4 4
1 2 3 6 7 7 8 9 8 8 7 5 4 4 4 3 2 2 1 0 0 0 0 0 0 0 1 2 3 2 1 0 1 2 2 3 4 6 7 7 6 5 4
1 3 5 5 5 7 8 8 8 8 7 6 5 4 3 1 1 2 2 1 0 0 0 0 0 0 0 1 3 2 1 0 0 1 1 1 3 6 7 7 7 6 4
3 6 6 5 5 7 9 9 9 9 9 9 8 6 4 1 1 2 3 2 1 1 1 0 0 0 0 1 2 2 1 0 0 0 0 1 3 4 5 5 6 6 5
4 6 7 6 5 6 7 7 8 9 9 10 9 7 4 3 3 3 3 3 3 2 2 1 1 0 1 1 2 1 0 0 0 0 0 1 3 5 5 5 5 5 6
3 5 7 7 7 6 5 5 7 8 8 8 8 6 4 3 4 4 4 4 3 3 3 3 2 1 1 2 1 0 0 0 0 0 0 1 3 7 9 8 6 6 6
1 4 6 6 7 7 7 7 8 8 7 7 6 6 5 5 5 4 4 4 4 3 3 3 2 1 1 1 1 0 0 0 0 0 0 1 4 7 10 10 8 7 7
1 2 4 5 6 7 7 7 9 9 8 6 6 6 7 6 5 4 4 4 4 3 3 3 2 1 0 1 1 1 0 0 0 0 0 1 4 7 9 9 9 8 7
0 0 1 3 5 5 5 6 7 9 8 7 7 8 7 5 4 3 4 5 5 5 4 4 3 1 0 1 2 2 1 1 1 1 0 2 4 5 6 8 8 7 6
1 0 0 2 2 2 3 5 6 8 10 11 10 9 7 5 3 3 5 7 7 6 6 5 4 2 1 1 2 3 2 1 2 1 1 3 4 4 4 5 5 5 5
2 1 0 1 1 2 3 5 5 8 12 13 12 11 10 8 5 4 5 7 7 6 5 5 5 4 2 0 1 1 1 1 1 0 2 4 5 4 4 3 3 3 4
2 2 2 3 4 4 4 3 4 8 13 14 13 13 13 12 9 8 9 9 8 7 7 7 7 6 3 1 1 1 1 1 1 1 2 4 6 6 6 5 4 4 5
2 3 4 6 8 9 7 5 5 9 12 13 13 14 15 14 13 14 14 13 11 10 9 9 8 6 3 2 2 2 2 2 3 3 4 6 8 9 8 6 5 5 6
1 2 5 7 10 12 12 9 8 9 10 12 13 15 16 16 16 17 17 15 13 11 10 9 7 5 3 3 2 1 2 4 5 7 8 10 11 11 10 8 7 7 7
1 3 5 7 11 16 16 13 9 8 8 10 12 15 16 16 17 17 17 15 13 12 11 10 7 5 3 3 3 2 3 6 9 11 12 13 13 12 11 11 8 6 6
4 4 5 6 12 17 18 15 11 9 9 10 13 14 14 15 16 15 15 15 15 15 14 11 7 5 4 4 4 4 6 10 13 13 13 13 13 12 13 12 10 6 5
6 6 5 7 11 14 15 15 14 14 12 12 14 15 15 14 14 13 11 12 15 16 15 11 8 7 6 5 4 5 8 11 12 12 12 12 13 14 14 13 11 8 6
9 8 8 10 13 14 15 15 16 16 16 15 16 17 16 14 13 11 9 9 12 14 14 11 9 8 8 6 5 5 7 8 9 11 11 11 13 16 16 14 12 9 7
11 11 13 15 17 18 18 17 17 17 17 16 16 17 15 13 12 11 10 10 12 13 12 10 9 9 10 8 5 4 5 6 6 8 9 8 9 12 13 12 11 9 7
15 15 17 20 22 20 19 20 20 19 19 17 16 16 15 14 13 13 12 13 14 13 11 9 9 10 10 9 5 3 5 6 6 7 8 7 6 7 8 8 9 8 7
17 17 20 22 23 21 19 20 21 21 20 19 18 18 18 18 17 15 15 15 15 14 13 12 12 12 12 10 7 6 7 7 8 9 9 8 7 8 7 7 8 8 8
17 18 22 25 25 23 22 21 23 23 21 19 18 19 20 21 19 16 15 15 16 15 14 13 12 13 14 14 12 11 11 11 11 11 10 8 8 9 8 7 6 7 9
17 19 24 29 28 26 25 25 24 24 22 19 19 20 21 22 20 15 14 15 16 16 14 13 13 14 15 15 15 16 16 14 14 13 10 7 7 8 8 6 3 4 6
17 19 26 31 31 29 28 26 25 25 24 22 21 21 21 21 20 16 13 16 17 16 15 14 15 15 14 14 16 18 17 16 15 13 11 8 7 8 8 5 1 2 3